This demonstration page uses our WeatherBlox Daily Observations layout. Learn more.

Left ArrowRight Arrow

44.8408, -93.29828

Hourly Observations for March 3, 2020

Temp ( °F °C ) Dew Point ( °F °C ) Humidity (%) Winds ( mph kmh ) Pressure ( in mb ) Visibility ( mi km ) Precip ( " mm )
12:53 am 00:53 Cloudy 31 -0.6 25 -3.9 79 79 SSE 6 9 29.51 999 10 16 0.00 0.00
1:53 am 01:53 Mostly Cloudy 33 0.6 26 -3.3 75 75 S 6 9 29.49 999 10 16 0.00 0.00
2:53 am 02:53 Partly Cloudy 33 0.6 27 -2.8 78 78 SW 7 11 29.47 998 10 16 0.00 0.00
3:53 am 03:53 Cloudy 34 1.1 28 -2.2 79 79 WSW 8 13 29.46 998 10 16 0.00 0.00
4:53 am 04:53 Cloudy with Light Snow 34 1.1 28 -2.2 79 79 WSW 8 13 29.47 998 9 14 0.00 0.00
5:53 am 05:53 Cloudy 34 1.1 28 -2.2 79 79 W 9 15 29.49 999 10 16 0.00 0.00
6:11 am 06:11 Mostly Cloudy 34 1.1 28 -2.2 79 79 W 10 17 29.51 999 10 16 0.00 0.00
6:53 am 06:53 Mostly Cloudy 33 0.6 28 -2.2 82 82 W 10 17 29.50 999 10 16 0.00 0.00
7:53 am 07:53 Mostly Cloudy 35 1.7 28 -2.2 76 76 W 14 22 29.53 1000 10 16 0.00 0.00
8:53 am 08:53 Partly Cloudy 36 2.2 26 -3.3 67 67 WNW 17 28 29.54 1000 10 16 0.00 0.00
9:53 am 09:53 Partly Cloudy 38 3.3 25 -3.9 60 60 WNW 17 28 29.55 1001 10 16 0.00 0.00
10:53 am 10:53 Mostly Cloudy 40 4.4 25 -3.9 55 55 WNW 14 22 29.56 1001 10 16 0.00 0.00
11:53 am 11:53 Mostly Cloudy 41 5 26 -3.3 55 55 WNW 16 26 29.58 1002 10 16 0.00 0.00
12:53 pm 12:53 Mostly Cloudy 41 5 28 -2.2 60 60 W 20 31 29.58 1002 10 16 0.00 0.00
1:53 pm 13:53 Mostly Cloudy 42 5.6 29 -1.7 60 60 W 18 30 29.58 1002 10 16 0.00 0.00
2:53 pm 14:53 Mostly Cloudy 42 5.6 28 -2.2 58 58 W 17 28 29.59 1002 10 16 0.00 0.00
3:53 pm 15:53 Mostly Cloudy 41 5 27 -2.8 57 57 WNW 16 26 29.61 1003 10 16 0.00 0.00
4:53 pm 16:53 Mostly Cloudy 41 5 27 -2.8 57 57 W 16 26 29.65 1004 10 16 0.00 0.00
5:53 pm 17:53 Mostly Cloudy 40 4.4 28 -2.2 63 63 W 17 28 29.67 1005 10 16 0.00 0.00
6:53 pm 18:53 Mostly Cloudy 38 3.3 27 -2.8 65 65 W 13 20 29.69 1006 10 16 0.00 0.00
7:53 pm 19:53 Mostly Clear 36 2.2 26 -3.3 67 67 WNW 15 24 29.72 1006 10 16 0.00 0.00
8:53 pm 20:53 Clear 35 1.7 23 -5 61 61 WNW 13 20 29.73 1007 10 16 0.00 0.00
9:53 pm 21:53 Clear 33 0.6 22 -5.6 64 64 WNW 13 20 29.75 1007 10 16 0.00 0.00
10:53 pm 22:53 Clear 32 0 21 -6.1 64 64 NW 12 19 29.78 1008 10 16 0.00 0.00
11:53 pm 23:53 Clear 31 -0.6 21 -6.1 67 67 WNW 8 13 29.80 1009 10 16 0.00 0.00

Powered by AerisWeather